Regional Weather Roundup
Issued by NWS

Home | Current Version | Previous Version | Graphics & Text | Print | Product List | Glossary On
Versions: 1 2 3 4 5 6 7 8 9 10 11 12 13 14 15 16 17 18 19 20 21 22 23 24 25 26 27 28 29 30 31 32 33 34 35 36 37 38 39 40 41 42 43 44 45 46 47 48 49 50
000
ASUS45 KSLC 271310
RWRUT

UTAH REGIONAL WEATHER ROUNDUP
NATIONAL WEATHER SERVICE SALT LAKE CITY UT
600 AM MST MON FEB 27 2017

UTZ001>011-023>025-271400-

NORTHERN UTAH

CITY           SKY/WX    TMP DP  RH WIND       PRES   REMARKS
BRIGHAM CITY     N/A     31  28  92 S6        29.64S WCI  25
HILL AFB       LGT SNOW  28  27  93 N8        29.62S FOG     WCI  20
LOGAN          LGT SNOW  29  27  92 NE8       29.62F VSB 1   WCI  21
OGDEN          LGT SNOW  28  28 100 NE9       29.63S VSB 3/4 WCI  19
SALT LAKE CITY LGT SNOW  30  28  93 N14       29.63S VSB 1   WCI  20
TOOELE VALLEY  LGT SNOW  32  32 100 N5        29.64R WCI  27
WENDOVER       CLOUDY    30  25  80 SE3       29.62S
HEBER CITY     LGT SNOW  32  27  80 S8G21     29.55F WCI  25
WEST JORDAN    CLOUDY    33  33 100 NW12      29.62S WCI  24

$$

UTZ011>015-024>027-271400-

CENTRAL/NORTHEAST UTAH

CITY           SKY/WX    TMP DP  RH WIND       PRES   REMARKS
PROVO AIRPORT  CLOUDY    38  29  70 SW13      29.62F WCI  30
MOAB/CANYONLAN CLOUDY    42  24  49 S14       29.67F
DELTA          CLOUDY    36  28  75 S17       29.63S WCI  25
PRICE          CLOUDY    28  21  75 NE5       29.63F WCI  23
RICHFIELD      CLOUDY    39  21  48 W6        29.65F WCI  35
ROOSEVELT      CLOUDY    27  19  74 CALM      29.67S
VERNAL         CLOUDY    23  16  74 E3        29.64F

$$

UTZ013>016-019>022-027-271400-

SOUTHERN UTAH

CITY           SKY/WX    TMP DP  RH WIND       PRES   REMARKS
BRYCE CANYON   CLOUDY    26  22  84 S14G24    29.71S WCI  14
CEDAR CITY     CLOUDY    36  23  59 S16G28    29.66S WCI  26
MILFORD        CLOUDY    36  27  69 S14       29.64F WCI  27
ST GEORGE      CLOUDY    47  30  51 S15       29.76S
HANKSVILLE     PTCLDY    43  21  42 SW13G21   29.69F
KANAB          CLOUDY    39  28  65 SW10      29.82S WCI  32
BLANDING       CLOUDY    33  24  70 S10       29.85F WCI  25

$$

REGIONAL REPORTS     COLORADO/ARIZONA

CITY           SKY/WX    TMP DP  RH WIND       PRES   REMARKS
CRAIG, CO      CLOUDY    32  18  56 SW10      29.64F WCI  24
GRAND JUNCTION CLOUDY    39  23  52 SE16G22   29.69F WCI  30
RIFLE, CO      CLOUDY    32  18  56 VRB5      29.68F WCI  27
MONTROSE, CO   CLOUDY    32  13  45 E12       29.77F WCI  23
CORTEZ, CO     CLOUDY    33  23  66 S6        29.83F WCI  28
COLORADO CITY  CLOUDY    39  30  70 S6        29.81S WCI  35
PAGE, AZ       MOCLDY    41  20  43 SW6       29.76R
GRAND CANYON   CLOUDY    32  27  81 SW18G31   29.82S WCI  20
KINGMAN, AZ    PTCLDY    42  21  43 E9        29.83S
FLAGSTAFF, AZ  CLOUDY    30  26  85 SW22G29   29.87R WCI  17

$$

REGIONAL REPORTS    NEVADA/IDAHO/WYOMING

CITY           SKY/WX    TMP DP  RH WIND       PRES   REMARKS
LAS VEGAS, NV  MOCLDY    48  29  47 S12G18    29.73R
ELY, NY        LGT SNOW  28  26  92 SE9       29.59S FOG     WCI  19
ELKO, NV       LGT SNOW  27  22  81 W17       29.63R WCI  14
POCATELLO, ID  CLOUDY    25  23  92 CALM      29.62S
BURLEY, ID     FOG       23  19  85 NE6       29.60S VSB 1/4 WCI  16
FORT BRIDGER,  PTSUNNY   18  18  99 W8        29.56R WCI   8
EVANSTON, WY   LGT SNOW  24  20  84 NW10      29.54R FOG     WCI  14
ROCK SPRINGS,  CLOUDY    23  13  65 SW17      29.53R WCI   9

$$



USA.gov is the U.S. government's official web portal to all federal, state and local government web resources and services.